Location: Poughquag
(41.6090°N, 73.6820°W)
Time: 09:26:56
(UTC-05:00)

DIWATA 2B (PO-101) - Pass Details

Date: 17 November 2025
Orbit: 563 x 574 km, 98.1° (Epoch: 07 December)

Event Time Altitude Azimuth Distance (km) Brightness Sun altitude
Rises 03:44:28 0° 112° (ESE) 2,765 ? -33.9°
Reaches altitude 10° 03:48:30 10° 72° (ENE) 1,872 ? -33.1°
Maximum altitude 03:49:12 10° 62° (ENE) 1,846 ? -33.0°
Drops below altitude 10° 03:49:55 10° 51° (NE) 1,873 ? -32.9°
Enters shadow 03:52:51 - 19° (NNE) 2,441 ? -32.3°
